Regional Weather Roundup
Issued by NWS

Home | Current Version | Previous Version | Graphics & Text | Print | Product List | Glossary On
Versions: 1 2 3 4 5 6 7 8 9 10 11 12 13 14 15 16 17 18 19 20 21 22 23 24 25 26 27 28 29 30 31 32 33 34 35 36 37 38 39 40 41 42 43 44 45 46 47 48 49 50
000
ASUS43 KMKX 201400
RWRWI

WISCONSIN REGIONAL WEATHER ROUNDUP
NATIONAL WEATHER SERVICE MILWAUKEE/SULLIVAN WI
800 AM CST MON NOV 20 2017

NOTE: "FAIR" INDICATES FEW OR NO CLOUDS BELOW 12,000 FEET WITH NO
SIGNIFICANT WEATHER AND/OR OBSTRUCTIONS TO VISIBILITY.

WIZ001-002-006>008-014>016-023>028-201500-
NORTHWEST WISCONSIN

CITY           SKY/WX    TMP DP  RH WIND       PRES   REMARKS
SUPERIOR ARPT  CLOUDY    20  18  93 CALM      29.65F
ASHLAND        CLOUDY    22  18  85 CALM      29.66F
HAYWARD        CLOUDY    21  17  84 CALM      29.65F
SIREN          CLOUDY    25  24  96 SE3       29.64F
CUMBERLAND     CLOUDY    23  21  93 CALM      29.66F
RICE LAKE      CLOUDY    24  23  96 SE5       29.69F WCI  18
CHETEK         CLOUDY    24  23  96 SE6       29.68F WCI  17
LADYSMITH      CLOUDY    24  23  94 SE3       29.71S
EAU CLAIRE     NOT AVBL
MENOMONIE      CLOUDY    27  25  91 E7        29.69F WCI  19
NEW RICHMOND   CLOUDY    29  26  88 SE6       29.66F WCI  23
OSCEOLA        CLOUDY    30  26  83 S5        29.68F WCI  25
$$

WIZ003>005-009-010-017-018-201500-
NORTH CENTRAL WISCONSIN

CITY           SKY/WX    TMP DP  RH WIND       PRES   REMARKS
MANITOWISH WTR CLOUDY    21  21 100 S5        29.67F WCI  15
ARBOR VITAE    CLOUDY    20  18  93 CALM      29.68F
WOODRUFF       CLOUDY    20  18  93 CALM      29.68F
RHINELANDER    CLOUDY   N/A N/A N/A SW7       29.70F
EAGLE RIVER    CLOUDY    22  22  98 CALM      29.68F
LAND O LAKES   CLOUDY    14  12  92 CALM      29.70F
PHILLIPS       CLOUDY    26  24  93 S3        29.67F
TOMAHAWK       CLOUDY    17  15  93 CALM      29.71F
MEDFORD        CLOUDY    24  22  92 S7        29.70F WCI  16
MERRILL        CLOUDY    18  16  93 CALM      29.73S
$$

WIZ029-030-035-036-043>047-201500-
CENTRAL WISCONSIN

CITY           SKY/WX    TMP DP  RH WIND       PRES   REMARKS
WAUSAU         CLOUDY    24  21  88 SE5       29.72F WCI  18
MOSINEE        MOCLDY    23  23 100 S3        29.75F
MARSHFIELD     CLOUDY    25  22  88 S5        29.72F WCI  19
STEVENS POINT  CLOUDY    25  23  94 S5        29.76F WCI  19
WAUPACA        CLOUDY    28  23  81 S3        29.79F
WAUTOMA        CLOUDY    20  19  96 CALM      29.80S
WISC RAPIDS    CLOUDY    28  24  85 S5        29.77F WCI  23
CAMP DOUGLAS   MOCLDY    34  25  69 S3        29.78S
$$

WIZ011>013-019>022-031-037>040-048>050-201500-
NORTHEAST WISCONSIN

CITY           SKY/WX    TMP DP  RH WIND       PRES   REMARKS
ANTIGO         CLOUDY    24  22  91 S3        29.73F
SHAWANO        CLOUDY    29  24  82 CALM      29.77F
OCONTO         PTCLDY    20  18  91 CALM      29.80F
STURGEON BAY   CLOUDY    30  25  81 S5        29.80F WCI  25
GREEN BAY      CLOUDY    31  27  85 S7        29.79F WCI  24
MANITOWOC      CLOUDY    34  25  69 W10       29.81  WCI  26
APPLETON       MOCLDY    27  21  80 S6        29.78F WCI  20
CLINTONVILLE   CLOUDY    27  21  80 S3        29.78F
OSHKOSH        CLOUDY    30  25  81 S10       29.80S WCI  21
$$

WIZ032>034-041-042-053>061-201500-
SOUTHWEST WISCONSIN

CITY           SKY/WX    TMP DP  RH WIND       PRES   REMARKS
LA CROSSE      CLOUDY    35  28  75 S12       29.76S WCI  27
SPARTA         CLOUDY    31  26  83 S3        29.76F
VIROQUA        CLOUDY    31  28  89 S6        29.75F WCI  26
BOSCOBEL       CLOUDY    24  21  88 CALM      29.81F
PRAIRIE DU CHI CLOUDY    36  26  67 S7        29.80F WCI  30
PLATTEVILLE    CLEAR     31  29  93 S10       29.83F WCI  22
$$

WIZ056-057-062-063-064-067-068-201500-
SOUTH CENTRAL WISCONSIN

CITY           SKY/WX    TMP DP  RH WIND       PRES   REMARKS
REEDSBURG      CLOUDY    31  26  80 S3        29.79F
BARABOO/DELLS  CLOUDY    31  26  80 S5        29.78F WCI  26
LONE ROCK      NOT AVBL
MINERAL POINT  CLOUDY    32  32 100 S8        29.82S WCI  25
MADISON        CLOUDY    32  26  78 S10       29.82F WCI  24
MIDDLETON      CLOUDY    33  28  80 SW8       29.83F WCI  26
WATERTOWN      CLOUDY    31  28  88 S9        29.84F WCI  23
MONROE         CLOUDY    30  27  86 S12       29.84F WCI  21
JANESVILLE     PTCLDY    34  28  80 S12       29.87F WCI  25
$$

WIZ051-052-058>065-066-070>072-201500-
SOUTHEAST WISCONSIN

CITY           SKY/WX    TMP DP  RH WIND       PRES   REMARKS
MILWAUKEE      CLOUDY    34  26  72 SW15      29.86F WCI  24
WAUKESHA       CLEAR     30  25  80 SW10      29.86F WCI  21
MILWAUKEE/TIMM CLEAR     34  23  64 SW12      29.86F WCI  25
RACINE         CLOUDY    36  26  67 SW14G25   29.88F WCI  27
BURLINGTON     CLOUDY    34  31  87 S13       29.87F WCI  25
KENOSHA        CLOUDY    36  25  64 SW13      29.88F WCI  27
FOND DU LAC    CLOUDY    33  24  69 S12       29.81F WCI  24
SHEBOYGAN      CLOUDY    33  26  75 SW10      29.82F WCI  25
WEST BEND      CLOUDY    32  27  80 SW8       29.83F WCI  25
JUNEAU         CLOUDY    29  25  85 S7        29.84F WCI  22
$$

LSZ147-162-201500-
LAKE SUPERIOR

STATION/POSITION TIME  TEMP    WIND        PRES    WAVE
                       AIR SEA DIR/SP/G            HT/PER
                 (UTC) (F)     (DEG/KT/KT) (MB)    (FT/S)
DEVILS ISLAND    1300   30     160/  6/  8 1005.9F
SAXON HARBOR     1340   29     200/  4/  6 1004.4F
$$

LMZ867-665-643>646-201500-
LAKE MICHIGAN

STATION/POSITION TIME  TEMP    WIND        PRES    WAVE
                       AIR SEA DIR/SP/G            HT/PER
                 (UTC) (F)     (DEG/KT/KT) (MB)    (FT/S)
N MID LAKE BUOY  1250   36 48  230/  4/  8 1010.8F   3/ 5
NORTHPORT PIER   1340   31      CALM  /  5 1009.1F
KEWAUNEE LAKESHO 1330   32     280/  7/ 11 1008.5S
SHEBOYGAN LAKESH 1300   34     240/ 17/ 18 1010.5F
PORT WASHINGTON  1340   36     250/ 12/ 18 1011.2F
MILWAUKEE LAKESH 1330   34     230/ 14/ 16   N/A
S MID LAKE BUOY  1250   42 49  260/ 21/ 27 1013.2F   6/ 6
KENOSHA   LAKESH 1300   34     230/ 12/ 19 1012.9
$$

TC  - TEMPERATURE IN CELSIUS
VSB - VISIBILITY IN STATUTE MILES
WCI - WIND CHILL INDEX
HX  - HEAT INDEX




USA.gov is the U.S. government's official web portal to all federal, state and local government web resources and services.